sat.trackr.live / text

‹ back to catalog

AEHF-1 (USA 214)

NORAD 36868 · 2010-039A

PAYLOAD ACTIVE UNKNOWN

§ Identity

Operator
Country
US
Launch date
2010-08-14
Launch site
AFETR
Launch vehicle
Mass (kg)
RCS (m²)
7.94

Purposes: comms

External: N2YO · Heavens-Above · Gunter

§ Orbital elements

Epoch: 2026-05-24T22:45:09.842112Z

Period
1,436.02 min
Inclination
8.1640°
Eccentricity
0.0004232
Mean motion
1.00277383 rev/d
Perigee alt
35,767.2 km
Apogee alt
35,802.9 km
Semi-major
42,163.2 km
B*
0.0000e+0
RAAN
68.3577°
Arg perigee
343.3717°
Mean anomaly
202.1238°
Rev number
5,342

§ Raw data

AEHF-1 (USA 214)1 36868U 10039A   26144.94803058  .00000146  00000+0  00000+0 0  99972 36868   8.1640  68.3577 0004232 343.3717 202.1238  1.00277383 53420

JSON: /api/v1/satellites/36868 · /tle

For live sub-satellite position, see the globe view (requires WebGL).

§ Visibility from observer

Set your observer location to see the next 7 days of passes ≥ 10°. The values pass through the URL so the page stays shareable.

No JS? Fill the form by hand. The geolocation button needs JavaScript.